Regional Weather Roundup
Issued by NWS Green Bay, WI

Home | Current Version | Previous Version | Graphics & Text | Print | Product List | Glossary Off
Versions: 1 2 3 4 5 6 7 8 9 10 11 12 13 14 15 16 17 18 19 20 21 22 23 24 25 26 27 28 29 30 31 32 33 34 35 36 37 38 39 40 41 42 43 44 45 46 47 48 49 50

000
ASUS43 KGRB 240411
RWRGRB

NORTH-CENTRAL AND NORTHEAST WISCONSIN REGIONAL WEATHER ROUNDUP
NATIONAL WEATHER SERVICE GREEN BAY WI
1100 PM CDT SUN APR 23 2017

WIZ005-009-010>012-018-019-240500-
NORTH CENTRAL WISCONSIN

CITY           SKY/WX    TMP DP  RH WIND       PRES   REMARKS
IRONWOOD       PTCLDY    34  26  72 E15       30.07F
MANITOWISH WTR MOCLDY    33  28  81 E7        30.06S
ARBOR VITAE    PTCLDY    38  31  76 SE12      30.05F
EAGLE RIVER    CLEAR     34  25  69 E9        30.08S
LAND O LAKES   CLEAR     32  26  77 E5        30.10F
RHINELANDER    PTCLDY    38  30  73 E9        30.07S
PHILLIPS       PTCLDY    38  32  79 E7        30.02F
ANTIGO         CLEAR     34  27  76 E12       30.08S
TOMAHAWK       CLEAR     38  32  79 E6        30.05F
MERRILL        CLEAR     40  32  73 SE10      30.06S
$$

WIZ013-073-240500-
NORTHEAST WISCONSIN

CITY           SKY/WX    TMP DP  RH WIND       PRES   REMARKS
IRON MOUNTAIN  PTCLDY    33  18  53 E6        30.13F
MARINETTE      CLOUDY    36  25  64 NE10G20   30.15S
OCONTO         CLOUDY    38  27  64 NE6       30.13F
$$

WIZ017-030-035>037-045-240500-
CENTRAL WISCONSIN

CITY           SKY/WX    TMP DP  RH WIND       PRES   REMARKS
MEDFORD        CLEAR     42  35  75 E10G18    30.01S
WAUSAU         CLEAR     39  32  76 SE14G21   30.06R
MOSINEE        CLEAR     37  32  81 E10       30.07R
MARSHFIELD     CLEAR     42  36  79 E16       30.01S
WISC RAPIDS    CLEAR     43  39  86 E14       30.05S
STEVENS POINT  CLEAR     38  33  82 E12       30.07S
WAUPACA        CLEAR     41  34  75 E9        30.09S
SHAWANO        PTCLDY    39  31  72 E12       30.12S
CLINTONVILLE   CLEAR     37  32  81 E8        30.11S
WAUTOMA        CLEAR     41  35  79 E10       30.08S
$$

WIZ038-039-048-051-240500-
FOX VALLEY

CITY           SKY/WX    TMP DP  RH WIND       PRES   REMARKS
NWS GREEN BAY  PTCLDY    40  29  64 NE12      30.11F
APPLETON       PTCLDY    37  27  65 E10       30.08F
OSHKOSH        CLEAR     40  30  67 E10       30.09S
FOND DU LAC    CLEAR     39  30  70 NE9       30.09S
$$

WIZ022-050-052-240500-
EAST CENTRAL WISCONSIN

CITY           SKY/WX    TMP DP  RH WIND       PRES   REMARKS
EPHRAIM        FAIR      36  26  68 NE7       30.13F
WASHINGTON ISL FAIR      35  22  58 NE9       30.15S
STURGEON BAY   CLOUDY    38  25  59 NE12G18   30.13F
MANITOWOC      CLOUDY    39  29  67 NE9       30.11S
SHEBOYGAN      CLOUDY    38  32  79 NE10      30.09F
$$

LMZ563-521-522-541>543-240500-
LAKESHORE

STATION/POSITION TIME  TEMP    WIND        PRES    VSBY  WAVE
                       AIR SEA DIR/SP/G                  HT/PER
                 (UTC) (F)     (DEG/KT/KT) (MB)    (MI)  (FT/S)
SHEBOYGAN LKSHOR 0400   39      10/ 15/ 16 1019.3R
KEWAUNEE LKSHORE 0348   39      50/ 16/ 20 1019.4F
NORTHPORT PIER   0340   37      20/  7/ 10 1021.0F
N MID LAKE BUOY  0350   36 37   40/ 16/ 17 1022.1F         2/ 4
CHAMBERS ISLAND  0340   37      20/ 17/ 19 1020.3F
MENOMINEE LKSHOR 0348   38      30/ 21/ 23 1019.8F
$$




USA.gov is the U.S. government's official web portal to all federal, state and local government web resources and services.